Regional Weather Roundup
Issued by NWS Albany, NY

Home | Current Version | Previous Version | Text Only | Print | Product List | Glossary On
Versions: 1 2 3 4 5 6 7 8 9 10 11 12 13 14 15 16 17 18 19 20 21 22 23 24 25 26 27 28 29 30 31 32 33 34 35 36 37 38 39 40 41 42 43 44 45 46 47 48 49 50
877
ASUS41 KALY 110310
RWRALY

NEW YORK STATE HOURLY WEATHER ROUNDUP
NATIONAL WEATHER SERVICE ALBANY NY
1000 PM EST WED FEB 10 2016

NOTE: "FAIR" INDICATES FEW OR NO CLOUDS BELOW 12,000 FEET WITH NO
SIGNIFICANT WEATHER AND/OR NO OBSTRUCTIONS TO VISIBILITY.

NYZ032-033-038>043-046>054-057>066-NYZ062>081-110400-
EAST


CITY           SKY/WX    TMP DP  RH WIND       PRES   REMARKS
ALBANY         PTCLDY    28  15  58 NW13      29.69R WCI  17
GLENS FALLS    MOCLDY    28  13  53 W5        29.66R WCI  23
POUGHKEEPSIE   CLOUDY    34  17  50 NW6       29.70R WCI  29
NEWBURGH       MOCLDY    30  21  69 W14G29    29.70R WCI  20
MONTGOMERY     CLOUDY    32  17  54 W10       29.69S WCI  24
WHITE PLAINS   MOCLDY    31  17  56 W7        29.69R WCI  24
ISLIP          PTCLDY    30  17  58 W10       29.70R WCI  21
NEW YORK CITY  PTCLDY    33  16  49 W14       29.74R WCI  23
CENTRAL PARK   MOCLDY    32  16  51 VRB3      29.76R
$$

NYZ005>009-017-018-044>046-055-056-110400-
CENTRAL


CITY           SKY/WX    TMP DP  RH WIND       PRES   REMARKS
FULTON         HVY SNOW  23  19  85 W15G25    29.73R VSB 1/4 WCI  10
SYRACUSE       MOCLDY    22  13  68 W18       29.73R WCI   7
ROME           CLOUDY    24  17  74 W15       29.71R WCI  11
ELMIRA         CLOUDY    21   5  50 W13G28    29.77R WCI   9
BINGHAMTON     CLOUDY    19   6  57 NW15      29.67R WCI   5
MONTICELLO     CLOUDY    25  16  68 W10       29.66R WCI  15
$$

NYZ026>034-041>043-110400-
NORTH


CITY           SKY/WX    TMP DP  RH WIND       PRES   REMARKS
WATERTOWN      CLOUDY    21  15  78 W12       29.70R WCI   9
FORT DRUM      NOT AVBL
MASSENA        PTCLDY    17  10  74 W7        29.69S WCI   8
SARANAC LAKE   CLOUDY    16  13  88 SW3       29.55S
PLATTSBURGH    PTCLDY    20  17  88 CALM      29.66R
$$

NYZ001>004-010>016-019>021-110400-
WEST


CITY           SKY/WX    TMP DP  RH WIND       PRES   REMARKS
NIAGARA FALLS  CLOUDY    17   7  64 W17       29.81R WCI   1
BUFFALO        CLOUDY    16   7  67 W17G24    29.81R WCI   0
DUNKIRK        CLOUDY    18   7  62 W14G23    29.85R WCI   4
JAMESTOWN      CLOUDY    12   1  62 NW15      29.75S WCI  -4
WELLSVILLE     MOCLDY    13   3  64 W17G24    29.72R WCI  -4
ROCHESTER      FLURRIES  19  13  77 W17G25    29.77S WCI   4
PENN YAN       CLOUDY    20   5  52 W18G26    29.74R WCI   5
$$

             KEY
       WCI = WIND CHILL INDEX
       VSB = VISIBILITY
       HX  = HEAT INDEX
$$




USA.gov is the U.S. government's official web portal to all federal, state and local government web resources and services.